Bangor, ME

12:42 PM EST on December 12, 2019 (GMT -0500)
Bangor International

Weather History for KBGR - October, 2019

Change the Weather History Date:

Monday, October 14, 2019

  Actual Average Record
Temperature  
Mean Temperature 50 °F 48 °F  
Max Temperature 59 °F 58 °F 89 °F (1930)
Min Temperature 41 °F 37 °F 23 °F (1993)
Degree Days  
Heating Degree Days 15 17  
Month to date heating degree days 193 208  
Since 1 July heating degree days 407 480  
Cooling Degree Days 0 0  
Month to date cooling degree days 0 0  
Year to date cooling degree days 336 317  
Moisture  
Dew Point 49 °F    
Average Humidity 93    
Maximum Humidity 100    
Minimum Humidity 86    
Precipitation  
Precipitation 0.00 in 0.13 in 1.86 in (1999)
Month to date precipitation 1.65 1.91  
Year to date precipitation 40.67 31.99  
Snow  
Snow 0.00 in 0.00 in 0.00 in (2002)
Month to date snowfall 0.0 0.0  
Since 1 July snowfall 0.0 0.0  
Since 1 September snowfall 0.0 0.0  
Snow Depth 0.00 in    
Sea Level Pressure  
Sea Level Pressure 30.01 in    
Wind  
Wind Speed 4 mph (South)    
Max Wind Speed 14 mph    
Max Gust Speed 17 mph    
Visibility 5 miles    
Events Fog    
T = Trace of Precipitation, MM = Missing Value Source: NWS Daily Summary

Daily Weather History Graph

Daily Weather History Graph

Search for Another Location

Airport or City:

Astronomy

Oct. 14, 2019 Rise Set
Actual Time 6:49 AM EDT 5:52 PM EDT
Civil Twilight 6:19 AM EDT 6:22 PM EDT
Nautical Twilight 5:45 AM EDT 6:56 PM EDT
Astronomical Twilight 5:11 AM EDT 7:29 PM EDT
Moon 6:40 PM EDT (10/14) 7:16 AM EDT (10/14)
Length of Visible Light 12h 02m
Length of Day
11h 03m
Waxing Gibbous, 99% of the Moon is Illuminated
Oct 14
Waxing Gibbous
Oct 21
Last Quarter
Oct 27
New
Nov 4
First Quarter
Nov 12
Full

Hourly Weather History & Observations

Time (EDT) Temp. Dew Point Humidity Pressure Visibility Wind Dir Wind Speed Gust Speed Precip Events Conditions
12:53 AM 45.0 °F 45.0 °F 100% 30.03 in 10.0 mi Calm Calm - N/A   Mostly Cloudy
1:34 AM 46.0 °F 45.0 °F 96% 30.04 in 10.0 mi Calm Calm - N/A   Mostly Cloudy
1:53 AM 46.0 °F 45.0 °F 96% 30.04 in 10.0 mi Calm Calm - N/A   Mostly Cloudy
2:32 AM 45.0 °F 45.0 °F 100% 30.04 in 1.5 mi Calm Calm - N/A   Mostly Cloudy
2:53 AM 46.0 °F 45.0 °F 96% 30.04 in 0.5 mi Calm Calm - N/A Fog Fog
3:53 AM 45.0 °F 45.0 °F 100% 30.03 in 0.5 mi Calm Calm - N/A Fog Fog
4:03 AM 44.1 °F 44.1 °F 100% 30.02 in 0.2 mi Calm Calm - N/A Fog Fog
4:20 AM 44.1 °F 44.1 °F 100% 30.03 in 0.5 mi Calm Calm - N/A Fog Fog
4:40 AM 44.1 °F 43.0 °F 96% 30.02 in 0.2 mi Calm Calm - N/A Fog Fog
4:53 AM 43.0 °F 43.0 °F 100% 30.01 in 0.2 mi Calm Calm - N/A Fog Fog
5:23 AM 44.1 °F 43.0 °F 96% 30.03 in 1.0 mi Calm Calm - N/A   Overcast
5:30 AM 44.1 °F 43.0 °F 96% 30.03 in 2.0 mi Calm Calm - N/A   Overcast
5:51 AM 44.6 °F 42.8 °F 93% 30.04 in 0.2 mi Calm Calm - N/A Fog Fog
5:53 AM 44.1 °F 43.0 °F 96% 30.05 in 0.2 mi Calm Calm - N/A Fog Fog
6:22 AM 42.1 °F 42.1 °F 100% 30.04 in 0.5 mi Calm Calm - N/A Fog Fog
6:46 AM 42.1 °F 42.1 °F 100% 30.04 in 0.2 mi Calm Calm - N/A Fog Fog
6:53 AM 42.1 °F 42.1 °F 100% 30.04 in 0.2 mi Calm Calm - N/A Fog Fog
7:26 AM 44.1 °F 44.1 °F 100% 30.04 in 0.2 mi Calm Calm - N/A Fog Fog
7:43 AM 46.0 °F 46.0 °F 100% 30.04 in 0.2 mi Calm Calm - N/A Fog Fog
7:53 AM 46.9 °F 46.9 °F 100% 30.05 in 0.2 mi Calm Calm - N/A Fog Fog
8:16 AM 48.9 °F 48.9 °F 100% 30.05 in 0.2 mi South 4.6 mph - N/A Fog Fog
8:53 AM 50.0 °F 50.0 °F 100% 30.05 in 0.2 mi SW 4.6 mph - N/A Fog Fog
9:28 AM 51.1 °F 51.1 °F 100% 30.06 in 0.2 mi SSW 3.5 mph - N/A Fog Fog
9:39 AM 51.1 °F 51.1 °F 100% 30.05 in 0.5 mi South 4.6 mph - N/A Fog Fog
9:53 AM 52.0 °F 52.0 °F 100% 30.05 in 0.8 mi SSE 4.6 mph - N/A   Overcast
10:01 AM 52.0 °F 52.0 °F 100% 30.05 in 1.5 mi SSE 4.6 mph - N/A   Overcast
10:13 AM 53.1 °F 52.0 °F 96% 30.05 in 2.0 mi South 6.9 mph - N/A   Overcast
10:28 AM 53.1 °F 52.0 °F 96% 30.04 in 2.0 mi SSE 5.8 mph - N/A   Overcast
10:35 AM 53.1 °F 53.1 °F 100% 30.04 in 3.0 mi South 6.9 mph - N/A   Overcast
10:53 AM 54.0 °F 53.1 °F 97% 30.03 in 10.0 mi SSE 9.2 mph - N/A   Overcast
11:53 AM 57.0 °F 53.1 °F 87% 30.02 in 10.0 mi SSE 8.1 mph - N/A   Overcast
12:46 PM 57.0 °F 52.0 °F 83% 30.00 in 10.0 mi SSW 10.4 mph - N/A   Overcast
12:53 PM 57.0 °F 53.1 °F 87% 30.00 in 10.0 mi South 11.5 mph - N/A   Overcast
1:09 PM 57.9 °F 53.1 °F 84% 29.99 in 10.0 mi SSW 11.5 mph - N/A   Overcast
1:53 PM 57.0 °F 53.1 °F 87% 29.98 in 10.0 mi South 9.2 mph - N/A   Overcast
2:53 PM 57.9 °F 53.1 °F 84% 29.96 in 10.0 mi South 9.2 mph - N/A   Overcast
3:37 PM 57.9 °F 53.1 °F 84% 29.95 in 10.0 mi South 9.2 mph - N/A   Overcast
3:53 PM 57.9 °F 53.1 °F 84% 29.95 in 10.0 mi South 6.9 mph - N/A   Overcast
4:53 PM 57.0 °F 52.0 °F 83% 29.95 in 10.0 mi South 8.1 mph - N/A   Overcast
5:53 PM 57.0 °F 52.0 °F 83% 29.95 in 10.0 mi SSE 6.9 mph - N/A   Overcast
6:26 PM 55.9 °F 52.0 °F 87% 29.94 in 10.0 mi SE 8.1 mph - N/A   Overcast
6:53 PM 55.9 °F 52.0 °F 87% 29.94 in 10.0 mi SSE 9.2 mph - N/A   Overcast
7:12 PM 55.9 °F 52.0 °F 87% 29.95 in 10.0 mi SSE 9.2 mph - N/A   Overcast
7:53 PM 55.9 °F 53.1 °F 90% 29.96 in 10.0 mi SSE 6.9 mph - N/A   Overcast
8:53 PM 55.0 °F 52.0 °F 89% 29.96 in 10.0 mi SSE 6.9 mph - N/A   Overcast
9:53 PM 55.0 °F 53.1 °F 93% 29.96 in 10.0 mi South 5.8 mph - N/A   Overcast
10:53 PM 55.0 °F 53.1 °F 93% 29.96 in 10.0 mi SSW 3.5 mph - N/A   Overcast
11:20 PM 55.0 °F 53.1 °F 93% 29.97 in 10.0 mi Calm Calm - 0.00 in   Light Drizzle
11:53 PM 54.0 °F 53.1 °F 97% 29.96 in 10.0 mi Calm Calm - 0.00 in   Overcast